ロニオス彗星

P/2004 A1 ( LONEOS )

English version
Home page
Updated on December 4, 2007

---------------------------------------------------------------------

・ プロフィール

発見日 2004年1月13日
発見光度 18.4等
発見者 B. Skiff (LONEOS)

・ 軌道要素

The following orbital elements are taken from MPC 60921:

Epoch 2004 Aug. 23.0 TT = JDT 2453240.5
T 2004 Aug. 25.8379 TT                                  MPC
q   5.462523             (2000.0)            P               Q
n   0.0444220      Peri.   20.4848      -0.8215450      -0.5500840
a   7.895942       Node   125.2459      +0.4942143      -0.8181773
e   0.308186       Incl.   10.5768      +0.2842816      -0.1673125
P  22.2
From 495 observations 2003 Oct. 25-2007 Aug. 7, mean residual 0".7.

・ 星図

・ 光度変化

        m1 = -0.5 + 5 logΔ + 20 log r(t - 200)

---------------------------------------------------------------------

軌道要素はMPCのEphemerides and Orbital Elementsに掲載されたものです。
星図は StellaNavigator Ver.2.0 for Windows (アストロアーツ 編著 / アスキー出版局刊) で作成したものです。
光度グラフはComet for Windowsで作成したものです。

---------------------------------------------------------------------

Copyright(C) Seiichi Yoshida (comet@aerith.net). All rights reserved.